ARG1635 SAZS-SABE

Flight info

Callsign ARG1635
Flight time N/A
Altitude FL370
Route LIMA2C LIMAY UZ109 ISMIL UT655 ASADA ASAD9R
Aircraft B38M/M-SDE2E3FGHIRWXY/LB1

Departure

Time 2026-04-29 20:26
Airport Teniente Luis Candelaria International Airport (SAZS)

Arrival

Time N/A
Airport Aeroparque Jorge Newbery (SABE)
Time Latitude Longitude Altitude Speed Heading
2026-04-29 19:40 -41.14698 -71.16159 2751 ft 0 kts 58°
2026-04-29 20:12 -41.14707 -71.16177 2743 ft 4 kts 61°
2026-04-29 20:12 -41.14719 -71.16209 2756 ft 4 kts 68°
2026-04-29 20:13 -41.14727 -71.16243 2757 ft 4 kts 76°
2026-04-29 20:13 -41.14731 -71.16266 2752 ft 4 kts 85°
2026-04-29 20:13 -41.14726 -71.16307 2752 ft 1 kts 118°
2026-04-29 20:19 -41.14730 -71.16296 2752 ft 3 kts 118°
2026-04-29 20:20 -41.14746 -71.16269 2752 ft 5 kts 133°
2026-04-29 20:20 -41.14776 -71.16234 2754 ft 7 kts 138°
2026-04-29 20:20 -41.14807 -71.16176 2752 ft 9 kts 115°
2026-04-29 20:20 -41.14836 -71.16095 2754 ft 11 kts 115°
2026-04-29 20:21 -41.14871 -71.15997 2754 ft 13 kts 115°
2026-04-29 20:21 -41.14909 -71.15884 2754 ft 14 kts 115°
2026-04-29 20:21 -41.14954 -71.15758 2753 ft 16 kts 115°
2026-04-29 20:21 -41.15003 -71.15618 2753 ft 17 kts 115°
2026-04-29 20:22 -41.15056 -71.15467 2753 ft 19 kts 115°
2026-04-29 20:22 -41.15113 -71.15304 2755 ft 20 kts 115°
2026-04-29 20:22 -41.15173 -71.15131 2752 ft 21 kts 115°
2026-04-29 20:22 -41.15236 -71.14949 2752 ft 22 kts 115°
2026-04-29 20:23 -41.15303 -71.14759 2753 ft 23 kts 115°
2026-04-29 20:23 -41.15362 -71.14588 2752 ft 18 kts 115°
2026-04-29 20:23 -41.15396 -71.14497 2752 ft 9 kts 126°
2026-04-29 20:23 -41.15456 -71.14477 2752 ft 10 kts 197°
2026-04-29 20:24 -41.15482 -71.14492 2752 ft 0 kts 204°
2026-04-29 20:24 -41.15483 -71.14492 2752 ft 0 kts 204°
2026-04-29 20:24 -41.15498 -71.14501 2753 ft 6 kts 204°
2026-04-29 20:25 -41.15524 -71.14576 2752 ft 12 kts 279°
2026-04-29 20:25 -41.15463 -71.14759 2755 ft 48 kts 296°
2026-04-29 20:25 -41.15233 -71.15425 2754 ft 109 kts 295°
2026-04-29 20:25 -41.14851 -71.16541 2769 ft 153 kts 293°
2026-04-29 20:26 -41.14425 -71.17794 3519 ft 144 kts 293°
2026-04-29 20:26 -41.14005 -71.19046 4134 ft 154 kts 293°
2026-04-29 20:26 -41.13554 -71.20383 4668 ft 166 kts 292°
2026-04-29 20:26 -41.13060 -71.21853 5001 ft 186 kts 292°
2026-04-29 20:27 -41.12493 -71.23530 5330 ft 214 kts 292°
2026-04-29 20:27 -41.12071 -71.24778 5650 ft 228 kts 292°
2026-04-29 20:27 -41.11225 -71.27273 6971 ft 225 kts 291°
2026-04-29 20:27 -41.10576 -71.29187 7771 ft 229 kts 290°
2026-04-29 20:28 -41.09927 -71.31105 8701 ft 228 kts 289°
2026-04-29 20:28 -41.09277 -71.33018 9624 ft 228 kts 288°
2026-04-29 20:28 -41.08623 -71.34936 10453 ft 230 kts 290°
2026-04-29 20:28 -41.07613 -71.36638 11183 ft 247 kts 315°
2026-04-29 20:29 -41.05982 -71.37589 11878 ft 272 kts 343°
2026-04-29 20:29 -41.04038 -71.37287 12612 ft 298 kts 16°
2026-04-29 20:29 -41.02335 -71.35606 13294 ft 318 kts 49°
2026-04-29 20:29 -41.01402 -71.32933 13986 ft 326 kts 81°
2026-04-29 20:30 -41.01275 -71.29946 14637 ft 329 kts 91°
2026-04-29 20:30 -41.01059 -71.26916 15273 ft 334 kts 75°
2026-04-29 20:30 -41.00229 -71.24067 15970 ft 334 kts 63°
2026-04-29 20:30 -40.99204 -71.21293 16600 ft 338 kts 61°
2026-04-29 20:31 -40.98126 -71.18520 17254 ft 341 kts 60°
2026-04-29 20:31 -40.97013 -71.15742 17912 ft 344 kts 60°
2026-04-29 20:31 -40.95879 -71.12954 18524 ft 346 kts 60°
2026-04-29 20:31 -40.94724 -71.10141 18942 ft 355 kts 59°
2026-04-29 20:32 -40.93512 -71.07207 19076 ft 373 kts 60°
2026-04-29 20:32 -40.92235 -71.04128 19185 ft 392 kts 60°
2026-04-29 20:32 -40.90896 -71.00903 19318 ft 409 kts 59°
2026-04-29 20:32 -40.89977 -70.98691 19473 ft 418 kts 60°
2026-04-29 20:33 -40.88092 -70.94163 20070 ft 425 kts 60°
2026-04-29 20:33 -40.86662 -70.90731 20514 ft 430 kts 59°
2026-04-29 20:33 -40.85215 -70.87264 20998 ft 434 kts 59°
2026-04-29 20:33 -40.83754 -70.83766 21498 ft 438 kts 59°
2026-04-29 20:34 -40.82276 -70.80232 21975 ft 442 kts 59°
2026-04-29 20:34 -40.80786 -70.76673 22446 ft 447 kts 59°
2026-04-29 20:34 -40.79277 -70.73076 22902 ft 451 kts 59°
2026-04-29 20:34 -40.77755 -70.69449 23354 ft 455 kts 59°
2026-04-29 20:35 -40.76218 -70.65790 23729 ft 460 kts 59°
2026-04-29 20:35 -40.74581 -70.62156 24057 ft 462 kts 50°
2026-04-29 20:35 -40.72479 -70.58982 24420 ft 463 kts 44°
2026-04-29 20:35 -40.70300 -70.55827 24707 ft 469 kts 44°
2026-04-29 20:36 -40.68094 -70.52659 25077 ft 472 kts 43°
2026-04-29 20:36 -40.65863 -70.49473 25386 ft 477 kts 43°
2026-04-29 20:36 -40.63609 -70.46259 25728 ft 481 kts 43°
2026-04-29 20:36 -40.61334 -70.43018 26066 ft 485 kts 43°
2026-04-29 20:37 -40.59194 -70.39551 26367 ft 492 kts 49°
2026-04-29 20:37 -40.57125 -70.35955 26655 ft 497 kts 50°
2026-04-29 20:37 -40.55046 -70.32322 27011 ft 500 kts 50°
2026-04-29 20:37 -40.52956 -70.28664 27302 ft 504 kts 50°
2026-04-29 20:38 -40.50845 -70.24973 27570 ft 508 kts 50°
2026-04-29 20:38 -40.48719 -70.21257 27901 ft 512 kts 50°
2026-04-29 20:38 -40.46576 -70.17516 28181 ft 516 kts 49°
2026-04-29 20:38 -40.44413 -70.13748 28476 ft 519 kts 49°
2026-04-29 20:39 -40.42236 -70.09958 28750 ft 523 kts 49°
2026-04-29 20:39 -40.40041 -70.06139 29021 ft 527 kts 49°
2026-04-29 20:39 -40.37829 -70.02299 29324 ft 530 kts 49°
2026-04-29 20:39 -40.35599 -69.98430 29591 ft 534 kts 49°
2026-04-29 20:40 -40.33357 -69.94547 29901 ft 537 kts 49°
2026-04-29 20:40 -40.31101 -69.90643 30138 ft 541 kts 49°
2026-04-29 20:40 -40.28828 -69.86716 30390 ft 543 kts 49°
2026-04-29 20:40 -40.26544 -69.82773 30671 ft 545 kts 49°
2026-04-29 20:41 -40.24253 -69.78825 30906 ft 547 kts 49°
2026-04-29 20:41 -40.21952 -69.74863 31182 ft 549 kts 49°
2026-04-29 20:41 -40.19637 -69.70884 31396 ft 552 kts 49°
2026-04-29 20:41 -40.17313 -69.66891 31661 ft 554 kts 49°
2026-04-29 20:42 -40.14977 -69.62886 31919 ft 556 kts 49°
2026-04-29 20:42 -40.12633 -69.58871 32148 ft 558 kts 49°
2026-04-29 20:42 -40.10278 -69.54845 32402 ft 560 kts 49°
2026-04-29 20:42 -40.07912 -69.50802 32625 ft 562 kts 49°
2026-04-29 20:43 -40.05538 -69.46752 32851 ft 564 kts 49°
2026-04-29 20:43 -40.03154 -69.42688 33086 ft 566 kts 49°
2026-04-29 20:43 -40.00758 -69.38611 33304 ft 569 kts 49°
2026-04-29 20:43 -39.98350 -69.34519 33563 ft 570 kts 49°
2026-04-29 20:44 -39.95940 -69.30427 33874 ft 570 kts 49°
2026-04-29 20:44 -39.93530 -69.26343 34139 ft 570 kts 49°
2026-04-29 20:44 -39.91118 -69.22261 34430 ft 569 kts 49°
2026-04-29 20:44 -39.88711 -69.18189 34702 ft 569 kts 49°
2026-04-29 20:45 -39.86301 -69.14122 34978 ft 568 kts 48°
2026-04-29 20:45 -39.83897 -69.10066 35267 ft 567 kts 48°
2026-04-29 20:45 -39.81491 -69.06014 35544 ft 567 kts 48°
2026-04-29 20:45 -39.79085 -69.01967 35797 ft 566 kts 48°
2026-04-29 20:46 -39.76682 -68.97932 36049 ft 566 kts 48°
2026-04-29 20:46 -39.74279 -68.93898 36283 ft 565 kts 48°
2026-04-29 20:46 -39.71878 -68.89876 36519 ft 565 kts 48°
2026-04-29 20:46 -39.69478 -68.85859 36752 ft 564 kts 48°
2026-04-29 20:47 -39.67074 -68.81843 36926 ft 564 kts 48°
2026-04-29 20:47 -39.64674 -68.77835 36934 ft 564 kts 48°
2026-04-29 20:47 -39.60675 -68.71171 36921 ft 562 kts 48°
2026-04-29 20:48 -39.55077 -68.61867 36916 ft 562 kts 48°
2026-04-29 20:48 -39.50272 -68.53902 36918 ft 562 kts 48°
2026-04-29 20:49 -39.45462 -68.45947 36922 ft 562 kts 48°
2026-04-29 20:49 -39.40646 -68.37999 36924 ft 563 kts 48°
2026-04-29 20:50 -39.35822 -68.30058 36922 ft 563 kts 48°
2026-04-29 20:50 -39.30986 -68.22130 36921 ft 563 kts 47°
2026-04-29 20:51 -39.26140 -68.14197 36924 ft 564 kts 47°
2026-04-29 20:51 -39.21281 -68.06262 36918 ft 565 kts 47°
2026-04-29 20:52 -39.16720 -67.98832 36918 ft 566 kts 47°
2026-04-29 20:52 -39.11841 -67.90903 36917 ft 567 kts 47°
2026-04-29 20:53 -39.06949 -67.82973 36917 ft 567 kts 47°
2026-04-29 20:53 -39.02043 -67.75039 36911 ft 568 kts 47°
2026-04-29 20:54 -38.94677 -67.63164 36909 ft 567 kts 47°
2026-04-29 20:55 -38.89763 -67.55269 36912 ft 567 kts 48°
2026-04-29 20:55 -38.84847 -67.47387 36911 ft 566 kts 48°
2026-04-29 20:56 -38.79931 -67.39526 36911 ft 566 kts 48°
2026-04-29 20:56 -38.75015 -67.31683 36922 ft 565 kts 48°
2026-04-29 20:57 -38.70102 -67.23863 36915 ft 564 kts 48°
2026-04-29 20:57 -38.65187 -67.16062 36904 ft 564 kts 48°
2026-04-29 20:58 -38.60269 -67.08273 36912 ft 564 kts 48°
2026-04-29 20:58 -38.55352 -67.00503 36910 ft 563 kts 48°
2026-04-29 20:59 -38.50432 -66.92749 36909 ft 563 kts 48°
2026-04-29 20:59 -38.45513 -66.85015 36912 ft 562 kts 48°
2026-04-29 21:00 -38.40588 -66.77287 36913 ft 562 kts 48°
2026-04-29 21:00 -38.35671 -66.69588 36908 ft 561 kts 48°
2026-04-29 21:00 -38.33366 -66.65586 36901 ft 563 kts 60°
2026-04-29 21:01 -38.31529 -66.61201 36920 ft 563 kts 61°
2026-04-29 21:01 -38.27809 -66.52447 36912 ft 563 kts 62°
2026-04-29 21:02 -38.24107 -66.43686 36912 ft 563 kts 62°
2026-04-29 21:02 -38.20406 -66.34944 36909 ft 563 kts 62°
2026-04-29 21:03 -38.16698 -66.26212 36906 ft 562 kts 62°
2026-04-29 21:03 -38.12996 -66.17516 36907 ft 561 kts 62°
2026-04-29 21:04 -38.09288 -66.08832 36905 ft 560 kts 62°
2026-04-29 21:04 -38.05577 -66.00165 36910 ft 560 kts 62°
2026-04-29 21:05 -38.01870 -65.91530 36912 ft 558 kts 61°
2026-04-29 21:05 -37.98165 -65.82922 36904 ft 556 kts 61°
2026-04-29 21:06 -37.94461 -65.74338 36900 ft 555 kts 61°
2026-04-29 21:06 -37.90758 -65.65782 36909 ft 554 kts 61°
2026-04-29 21:07 -37.87058 -65.57257 36911 ft 554 kts 61°
2026-04-29 21:07 -37.83973 -65.50163 36914 ft 553 kts 61°
2026-04-29 21:08 -37.79653 -65.40259 36911 ft 552 kts 61°
2026-04-29 21:08 -37.75946 -65.31785 36914 ft 551 kts 61°
2026-04-29 21:09 -37.72242 -65.23338 36919 ft 551 kts 61°
2026-04-29 21:09 -37.68525 -65.14887 36917 ft 551 kts 61°
2026-04-29 21:10 -37.64806 -65.06450 36927 ft 551 kts 61°
2026-04-29 21:10 -37.61079 -64.98018 36923 ft 551 kts 61°
2026-04-29 21:11 -37.57346 -64.89595 36923 ft 552 kts 61°
2026-04-29 21:11 -37.53604 -64.81173 36931 ft 552 kts 61°
2026-04-29 21:12 -37.49850 -64.72745 36926 ft 553 kts 61°
2026-04-29 21:12 -37.46089 -64.64327 36928 ft 553 kts 61°
2026-04-29 21:13 -37.42322 -64.55910 36928 ft 553 kts 61°
2026-04-29 21:13 -37.38548 -64.47499 36935 ft 554 kts 61°
2026-04-29 21:14 -37.34754 -64.39067 36936 ft 555 kts 60°
2026-04-29 21:14 -37.30915 -64.30671 36937 ft 556 kts 60°
2026-04-29 21:15 -37.27069 -64.22266 36930 ft 556 kts 60°
2026-04-29 21:15 -37.23215 -64.13860 36933 ft 557 kts 60°
2026-04-29 21:16 -37.19353 -64.05462 36931 ft 557 kts 60°
2026-04-29 21:16 -37.15483 -63.97067 36937 ft 557 kts 60°
2026-04-29 21:17 -37.11607 -63.88680 36932 ft 557 kts 60°
2026-04-29 21:17 -37.07722 -63.80295 36939 ft 558 kts 60°
2026-04-29 21:18 -37.03832 -63.71920 36936 ft 558 kts 60°
2026-04-29 21:18 -36.99936 -63.63554 36943 ft 558 kts 60°
2026-04-29 21:19 -36.96030 -63.55188 36935 ft 558 kts 60°
2026-04-29 21:19 -36.92122 -63.46837 36937 ft 558 kts 60°
2026-04-29 21:20 -36.88203 -63.38485 36942 ft 558 kts 60°
2026-04-29 21:20 -36.84280 -63.30146 36936 ft 558 kts 60°
2026-04-29 21:21 -36.80353 -63.21819 36939 ft 558 kts 60°
2026-04-29 21:21 -36.76419 -63.13498 36943 ft 558 kts 60°
2026-04-29 21:22 -36.72479 -63.05185 36940 ft 558 kts 59°
2026-04-29 21:22 -36.68534 -62.96881 36948 ft 558 kts 59°
2026-04-29 21:23 -36.64585 -62.88591 36943 ft 558 kts 59°
2026-04-29 21:23 -36.60628 -62.80304 36949 ft 558 kts 59°
2026-04-29 21:24 -36.56666 -62.72027 36940 ft 558 kts 59°
2026-04-29 21:24 -36.52698 -62.63759 36951 ft 558 kts 59°
2026-04-29 21:25 -36.48724 -62.55497 36949 ft 558 kts 59°
2026-04-29 21:25 -36.44746 -62.47247 36950 ft 558 kts 59°
2026-04-29 21:26 -36.40763 -62.39008 36946 ft 558 kts 59°
2026-04-29 21:26 -36.36769 -62.30767 36941 ft 558 kts 59°
2026-04-29 21:27 -36.33444 -62.23921 36953 ft 558 kts 59°
2026-04-29 21:27 -36.28775 -62.14331 36951 ft 558 kts 59°
2026-04-29 21:28 -36.24769 -62.06125 36952 ft 558 kts 59°
2026-04-29 21:28 -36.20757 -61.97921 36953 ft 558 kts 59°
2026-04-29 21:29 -36.16743 -61.89733 36956 ft 558 kts 59°
2026-04-29 21:29 -36.12721 -61.81547 36959 ft 558 kts 59°
2026-04-29 21:30 -36.08693 -61.73369 36953 ft 558 kts 59°
2026-04-29 21:30 -36.04668 -61.65199 36953 ft 558 kts 59°
2026-04-29 21:31 -36.00637 -61.57040 36952 ft 558 kts 59°
2026-04-29 21:31 -35.96598 -61.48883 36957 ft 557 kts 59°
2026-04-29 21:32 -35.92557 -61.40741 36957 ft 557 kts 59°
2026-04-29 21:32 -35.88519 -61.32611 36956 ft 557 kts 59°
2026-04-29 21:33 -35.84500 -61.24464 36956 ft 557 kts 59°
2026-04-29 21:33 -35.80472 -61.16323 36957 ft 557 kts 59°
2026-04-29 21:34 -35.76446 -61.08207 36958 ft 557 kts 59°
2026-04-29 21:34 -35.74438 -61.04164 36586 ft 552 kts 59°
2026-04-29 21:34 -35.72437 -61.00140 35802 ft 555 kts 59°
2026-04-29 21:34 -35.70425 -60.96099 35163 ft 555 kts 59°
2026-04-29 21:35 -35.68418 -60.92077 34745 ft 549 kts 60°